Восточный

Россия / Сахалинская область     48°16′44″N   142°37′22″E
темп.,
°C
ветер,
м/с
пор.,
м/с
влажн.,
%
обл.,
%
осадки,
мм/ч
давл.,
гПа
погр.,
м
9 марта, вт
вт923:00−7зюз4137913 0.0 1020373
02:00−5зюз412810 0.0 1018427
05:00−6зюз3108111 0.0 1017222
08:00−7зюз238481 0.0 101629
11:00−1юз5107290 0.0 1015890
14:000юз5107832 0.0 1012705
17:00+1юз6137936 0.0 1010887
20:00−1юз5158492 0.0 10081081
10 марта, ср
ср1023:00−1ююз5139796 0.4 10071048
02:00−1ююз3998100 3.1 1004508
05:00−1з1199100 5.3 100553
08:00−5сз349299 0.0 1007130
11:00−5сз3782100 0.0 1009412
14:00−2ссз367958 0.0 1012699
17:00−3сз497836 0.0 1014674
20:00−8зсз35800 0.0 1017104
11 марта, чт
чт1123:00−10зсз33710 0.0 101961
02:00−10зсз33730 0.0 101952
05:00−9зсз23810 0.0 101836
08:00−8з228545 0.0 101721
11:00−2зюз5107167 0.0 1016958
14:00−1з696937 0.0 10141247
17:00−2сз5107356 0.0 10151359
20:00−6зсз238662 0.0 101834
12 марта, пт
пт1223:00−7зсз3108331 0.0 1022315
02:00−9з22800 0.0 102329
05:00−9зсз35810 0.0 102497
08:00−8з25890 0.0 1025106
11:00−2з478340 0.3 1025975
14:00−2зсз586621 0.1 1024933
17:00−2з586411 0.1 1023956
20:00−6зюз238378 0.0 102256
13 марта, сб
сб1323:00−6юз398859 0.0 1021211
02:00−3зюз4138138 0.0 1019408
05:00−4зюз4128419 0.0 1017333
08:00−3зюз412810 0.0 1017350
11:00+1зюз611760 0.0 1016657
14:00+1зюз611770 0.0 1016697
17:00+2зюз513730 0.0 1014636
20:00−1зюз517800 0.0 1013470